Regional Weather Roundup
Issued by NWS

Home | Current Version | Previous Version | Text Only | Print | Product List | Glossary Off
Versions: 1 2 3 4 5 6 7 8 9 10 11 12 13 14 15 16 17 18 19 20 21 22 23 24 25 26 27 28 29 30 31 32 33 34 35 36 37 38 39 40 41 42 43 44 45 46 47 48 49

000
ASUS45 KBOU 220407
RWRCO

WEATHER ROUNDUP FOR COLORADO
NATIONAL WEATHER SERVICE DENVER/BOULDER CO
1000 PM MDT FRI APR 21 2017

NOTE: "FAIR" INDICATES FEW OR NO CLOUDS BELOW 12000 FEET WITH NO
SIGNIFICANT WEATHER AND/OR OBSTRUCTIONS TO VISIBILITY.

COZ001>005-013-030-031-220500-
...NORTHWEST COLORADO...

CITY           SKY/WX    TMP DP  RH WIND       PRES   REMARKS
CRAIG          CLOUDY    37  30  75 S14       30.19R
HAYDEN         MOCLDY    37  25  60 E7        30.20S
MEEKER         FAIR      37  29  72 CALM      30.19R
MOUNT WERNER   NOT AVBL
STEAMBOAT SPGS CLOUDY    34  29  83 S7        30.20R WCI  28
WALDEN           N/A     30  27  86 E6        30.21R WCI  24
$$

COZ006>008-011-220500-
...WEST CENTRAL VALLEYS...

CITY           SKY/WX    TMP DP  RH WIND       PRES   REMARKS
GRAND JUNCTION CLOUDY    52  24  33 NE13      30.10R
MONTROSE       MOCLDY    46  18  32 W7        30.13R
EAGLE          CLOUDY    36  29  75 NE5       30.22R
RIFLE          FAIR      43  29  57 CALM      30.16R
DELTA          CLOUDY    51  20  29 E6        30.12R
NUCLA          FAIR      45  18  33 NE7       30.16R
$$

COZ017>023-064>068-220500-
...SOUTHWEST COLORADO...

CITY           SKY/WX    TMP DP  RH WIND       PRES   REMARKS
DURANGO        FAIR      49   3  15 W14       30.07R
CORTEZ         FAIR      46  11  24 N3        30.10R
PAGOSA SPRINGS FAIR      40  14  34 CALM      30.10R
TELLURIDE      FAIR      35  17  48 W5        30.20R WCI  31
WOLF CREEK PAS FAIR      25  10  54 S8        30.25R WCI  16
$$

COZ009-010-012-014-032>034-037-058>063-220500-
...CENTRAL COLORADO...

CITY           SKY/WX    TMP DP  RH WIND       PRES   REMARKS
ASPEN          FAIR      32  27  81 CALM      30.18R
BUENA VISTA    FAIR      36  19  50 NW9       30.17R
COPPER MTN     HAZE      23  18  80 MISG      30.23R VSB 3/4
BERTHOUD PASS  SNOW      14   3  62 NW6       30.21R VSB<1/4 WCI   5
COTTONWOOD PAS MOCLDY    32  19  59 NW5       30.19R WCI  27
GUNNISON       FAIR      38  23  55 NE3       30.16R
KREMMLING      CLOUDY    37  30  75 S7        30.21R
LEADVILLE      CLOUDY    25  21  85 NW5       30.20R WCI  19
MONARCH PASS   FAIR      21  14  73 NW6       30.33R WCI  14
SALIDA         FAIR      40  32  73 SE13G18   30.23R
SUNLIGHT       FAIR      21  18  86 MISG      30.26S
WILKERSON PASS CLOUDY   N/A N/A N/A NE6       30.24R
$$

COZ069>075-220500-
...SAN LUIS VALLEY/SANGRE DE CRISTO MOUNTAINS...

CITY           SKY/WX    TMP DP  RH WIND       PRES   REMARKS
ALAMOSA        FAIR      37  14  38 SE7       30.11R
LA VETA PASS   LGT SNOW  27  27 100 MISG      30.31R VSB 3/4
SAGUACHE       FAIR      41  12  30 N13G21    30.12R
$$

COZ035-036-038>040-220500-
...NORTHERN COLORADO FRONT RANGE...

CITY           SKY/WX    TMP DP  RH WIND       PRES   REMARKS
DENVER INTL AP DRIZZLE   38  36  92 E6        30.22R FOG
DMNS CITY PARK   N/A     39  33  80 E3        30.23R
AURORA         DRIZZLE   37  36  99 CALM      30.22R
FRONT RANGE AP NOT AVBL
ERIE MUNI ARPT CLOUDY    40  37  87 E3        30.22S
BOULDER MUN AP CLOUDY    37  37 100 CALM      30.22R
CENTENNIAL     CLOUDY    37  34  89 NE6       30.21R
BROOMFIELD     CLOUDY    39  37  93 NE6       30.22R
FORT COLLINS   LGT RAIN  40  37  89 SE8       30.23R
LONGMONT       CLOUDY    42  38  86 CALM      30.24R
$$

COZ041-046-047-076>085-087-088-220500-
...PIKES PEAK/PALMER DIVIDE AND SOUTHERN FOOTHILLS...

CITY           SKY/WX    TMP DP  RH WIND       PRES   REMARKS
COLO. SPRINGS  CLOUDY    40  30  67 N15       30.21R
A. F. ACADEMY  CLOUDY    37  30  75 N9        30.20R
SCHRIEVER AFB  MOCLDY    38  31  78 N10G21    30.20R
ELLICOTT       CLOUDY     1  32 100 N14       30.18R WCI -17
FALCON         CLOUDY    35  30  83 N14       30.21R WCI  25
FORT CARSON    MOCLDY    41  31  66 N12       30.19R
LIMON          CLOUDY    37  37 100 E8        30.21R
MONUMENT HILL  CLOUDY    32  30  93 N7        30.22R WCI  26
TRINIDAD       CLOUDY    42  35  76 N8        30.18R
$$

COZ042>045-048>051-090-091-220500-
...NORTHEAST COLORADO...

CITY           SKY/WX    TMP DP  RH WIND       PRES   REMARKS
GREELEY ARPT   LGT RAIN  41  38  89 SE7       30.24R
AKRON          CLOUDY    39  37  92 CALM      30.22R
BURLINGTON     CLOUDY    41  38  89 N6        30.20R
WRAY           NOT AVBL
STERLING       CLOUDY    41  41 100 W3        30.21S
HOLYOKE        FAIR      43  41  93 NW6       30.22R
FORT MORGAN    CLOUDY    39  37  94 E3        30.24R
$$

COZ086-089-092>099-220500-
...SOUTHEAST COLORADO...

CITY           SKY/WX    TMP DP  RH WIND       PRES   REMARKS
PUEBLO         LGT RAIN  44  40  85 SE9       30.19R
LA JUNTA       CLOUDY    44  37  76 E8        30.19R
LAMAR          CLOUDY    43  38  82 CALM      30.18R
SPRINGFIELD      N/A     39  36  89 NE9       30.18R
$$



USA.gov is the U.S. government's official web portal to all federal, state and local government web resources and services.